[[{"header":{"parameterUnit":"m.s-1","parameterCategory":1,"la1":30.2991,"la2":30.254,"lo1":-89.0895,"lo2":-89.0444,"dy":0.0017,"dx":0.0017,"nx":28,"ny":28,"refTime":"2024-06-11T21:00:00:Z","depth":0,"parameterNumber":2,"parameterNumberName":"U-component_of_WINDS"},"data":[0,0,0,0,0,0,0,0,0,0,0,0,0,0,0,0,0,0,0,0,0,0,0,0,0,0,0,0,0,0,0,0,0,0,0,0,0,0,0,0,0,0,0,0,0,0,0,0,0,0,0,0,0,0,0,0,0,0,-0.2118,-0.2117,0,-0.2071,-0.2071,-0.207,-0.2073,-0.2074,-0.2075,-0.2075,-0.2027,-0.2025,-0.2023,0,0,0,0,0,0,0,0,0,0,0,0,0,-0.2208,-0.2207,-0.2118,-0.2117,-0.2117,-0.2071,-0.2071,-0.207,-0.2073,-0.2074,-0.2075,-0.2076,-0.2027,-0.2025,-0.2023,0,0,0,0,0,0,0,0,0,0,0,0,0,-0.2166,-0.2206,-0.2118,-0.2113,-0.2112,-0.2072,-0.2071,-0.207,-0.2073,-0.2074,-0.2075,-0.2076,-0.2028,-0.2025,-0.2023,-0.1984,0,0,-0.2014,-0.2012,0,0,0,0,0,0,0,0,-0.2168,-0.2163,-0.2114,-0.2113,-0.2112,-0.2079,-0.2085,-0.2041,-0.2073,-0.2088,-0.2075,-0.2077,-0.2043,-0.2039,-0.2028,-0.1982,-0.1979,-0.2013,-0.2012,-0.201,-0.201,0,0,0,0,0,0,0,-0.2171,-0.2165,-0.2099,-0.2114,-0.2112,-0.2112,-0.2108,-0.2076,-0.206,-0.2087,-0.2087,-0.2081,-0.2043,-0.2031,-0.2027,-0.1979,-0.2013,-0.2011,-0.2009,-0.2008,-0.1898,-0.1897,0,0,0,0,0,0,-0.2176,-0.2167,-0.2101,-0.2098,-0.2143,-0.211,-0.2105,-0.2089,-0.2061,-0.2057,-0.208,-0.2082,-0.2035,-0.203,-0.2025,-0.1979,-0.201,-0.2008,-0.2006,-0.1899,-0.1898,-0.1896,0,0,0,0,0,0,-0.2178,-0.217,-0.2103,-0.2133,-0.2124,-0.2107,-0.209,-0.2087,-0.2075,-0.2056,-0.2053,-0.2071,-0.2036,-0.2029,-0.1994,-0.1977,-0.2006,-0.2004,-0.19,-0.1899,-0.1897,-0.1884,0,0,0,0,0,0,-0.218,-0.217,-0.2156,-0.2132,-0.2123,-0.2073,-0.2088,-0.2086,-0.207,-0.2072,-0.2047,-0.2044,-0.2036,-0.1999,-0.1991,-0.1973,-0.2001,-0.1902,-0.19,-0.1898,-0.1886,-0.1882,-0.1879,0,0,0,0,0,-0.2183,-0.2154,-0.2155,-0.2147,-0.2104,-0.2072,-0.2066,-0.2059,-0.2069,-0.2054,-0.2042,-0.2044,-0.198,-0.1995,-0.1987,-0.1968,-0.1903,-0.19,-0.1898,-0.1888,-0.1883,-0.1879,0,0,0,0,0,0,-0.2176,-0.2151,-0.2152,-0.2114,-0.2095,-0.2072,-0.2053,-0.2054,-0.2032,-0.2033,-0.2025,-0.2019,-0.1984,-0.1972,-0.1989,-0.1929,-0.1943,-0.1938,-0.1938,-0.1933,-0.193,-0.1934,-0.1999,0,0,0,0,0,-0.217,-0.2146,-0.2125,-0.2094,-0.2084,-0.207,-0.2056,-0.2052,-0.2032,-0.2024,-0.2009,-0.1989,-0.1964,-0.1948,-0.1924,-0.1884,-0.1879,-0.1867,-0.1864,-0.1861,-0.1857,-0.1836,-0.183,-0.1888,-0.1888,-0.1888,0,0,-0.2157,-0.214,-0.2126,-0.2092,-0.2077,-0.2052,-0.2064,-0.2037,-0.2018,-0.2019,-0.1986,-0.1974,-0.1951,-0.1913,-0.1896,-0.1902,-0.184,-0.1857,-0.1855,-0.1853,-0.1832,-0.1827,-0.1822,-0.1886,-0.1886,-0.1887,0,0,-0.2121,-0.2106,-0.2078,-0.2063,-0.204,-0.2031,-0.2024,-0.2001,-0.1993,-0.1959,-0.1959,-0.1937,-0.1894,-0.1878,-0.1864,-0.1822,-0.1824,-0.1814,-0.1796,-0.1775,-0.177,-0.1766,-0.1752,-0.1746,-0.1811,-0.1811,-0.1811,0,-0.2108,-0.2071,-0.2064,-0.2037,-0.2022,-0.2022,-0.1994,-0.1979,-0.1949,-0.1939,-0.1946,-0.1893,-0.1877,-0.1836,-0.1826,-0.1814,-0.1806,-0.1818,-0.1772,-0.1767,-0.1764,-0.175,-0.1744,-0.181,-0.181,-0.181,-0.181,0,-0.2056,-0.2031,-0.2011,-0.1983,-0.1965,-0.1938,-0.1926,-0.1909,-0.1906,-0.1896,-0.1861,-0.1843,-0.1815,-0.1805,-0.1802,-0.1763,-0.1768,-0.1773,-0.1787,-0.1757,-0.1744,-0.1738,-0.1808,-0.1809,-0.1809,-0.1809,0,0,-0.2015,-0.1983,-0.1976,-0.1963,-0.1937,-0.1917,-0.1889,-0.1863,-0.1849,-0.1828,-0.1804,-0.1768,-0.1773,-0.1758,-0.1752,-0.1734,-0.1702,-0.1742,-0.1741,-0.1736,-0.1659,-0.1655,-0.1649,-0.1703,-0.1701,-0.1701,-0.1661,0,-0.1978,-0.1929,-0.1922,-0.1879,-0.1855,-0.1854,-0.183,-0.1811,-0.1801,-0.1779,-0.1767,-0.1742,-0.175,-0.1741,-0.1723,-0.171,-0.1686,-0.1712,-0.1681,-0.168,-0.1688,-0.1642,-0.1638,-0.1602,-0.1655,-0.1655,-0.1654,0,-0.1927,-0.1906,-0.1861,-0.1838,-0.1828,-0.1806,-0.1781,-0.176,-0.1739,-0.1732,-0.1715,-0.1712,-0.1683,-0.1697,-0.1657,-0.1675,-0.1661,-0.1653,-0.1651,-0.1649,-0.1666,-0.1639,-0.159,-0.1585,-0.1645,-0.1646,-0.1647,0,-0.1903,-0.1862,-0.183,-0.1819,-0.1792,-0.1777,-0.1764,-0.1744,-0.1728,-0.1706,-0.1696,-0.167,-0.1656,-0.1637,-0.1627,-0.1638,-0.1587,-0.1601,-0.1582,-0.1582,-0.1572,-0.1573,-0.1521,-0.1562,-0.1562,-0.1562,-0.1562,0,-0.1862,-0.1835,-0.1819,-0.1799,-0.1768,-0.1759,-0.1729,-0.1717,-0.1699,-0.1677,-0.1674,-0.1653,-0.1641,-0.1618,-0.161,-0.1578,-0.1572,-0.1566,-0.1564,-0.1567,-0.1568,-0.1558,-0.1561,-0.156,-0.1561,-0.1561,-0.1561,0,-0.183,-0.1818,-0.1783,-0.176,-0.1754,-0.1732,-0.1712,-0.1693,-0.1682,-0.1654,-0.1647,-0.163,-0.1603,-0.1591,-0.1558,-0.1553,-0.1517,-0.1516,-0.1524,-0.1524,-0.1505,-0.1507,-0.1446,-0.1438,-0.1484,-0.1483,-0.1483,0,-0.1805,-0.1784,-0.1759,-0.1744,-0.1732,-0.1707,-0.1692,-0.1681,-0.1665,-0.1639,-0.1623,-0.1596,-0.1574,-0.153,-0.1515,-0.149,-0.1489,-0.147,-0.1486,-0.1489,-0.149,-0.1492,-0.149,-0.1467,-0.1467,-0.1466,-0.1466,0,-0.1763,-0.1758,-0.1735,-0.1711,-0.1692,-0.1672,-0.1652,-0.164,-0.1626,-0.1608,-0.158,-0.1563,-0.1529,-0.1502,-0.1476,-0.1463,-0.1462,-0.1461,-0.1455,-0.1458,-0.1464,-0.1461,-0.1517,-0.1463,-0.1463,-0.1463,-0.1463,-0.1464,-0.1734,-0.1716,-0.1695,-0.167,-0.1654,-0.1635,-0.1616,-0.1603,-0.158,-0.1552,-0.1547,-0.1518,-0.1497,-0.1461,-0.1447,-0.1424,-0.1429,-0.142,-0.1418,-0.1417,-0.1416,-0.1466,-0.1419,-0.1419,-0.1419,-0.1419,-0.1419,0,-0.1693,-0.1679,-0.1656,-0.1628,-0.1608,-0.1609,-0.1587,-0.1571,-0.1545,-0.1525,-0.1504,-0.1472,-0.1446,-0.1428,-0.1402,-0.1387,-0.1386,-0.138,-0.1382,-0.1379,-0.1413,-0.1421,-0.1382,-0.1382,-0.1382,-0.1382,-0.1382,-0.1382,-0.1669,-0.1637,-0.163,-0.159,-0.1577,-0.1548,-0.1536,-0.1519,-0.1503,-0.1468,-0.1446,-0.1435,-0.1416,-0.1388,-0.1364,-0.136,-0.1351,-0.1345,-0.1341,-0.1373,-0.1377,-0.138,-0.1388,-0.1343,-0.1343,-0.1309,-0.1309,-0.1309]},{"header":{"parameterUnit":"m.s-1","parameterCategory":1,"la1":30.2991,"la2":30.254,"lo1":-89.0895,"lo2":-89.0444,"dy":0.0017,"dx":0.0017,"nx":28,"ny":28,"refTime":"2024-06-11T21:00:00:Z","depth":0,"parameterNumber":3,"parameterNumberName":"V-component_of_WINDS"},"data":[0,0,0,0,0,0,0,0,0,0,0,0,0,0,0,0,0,0,0,0,0,0,0,0,0,0,0,0,0,0,0,0,0,0,0,0,0,0,0,0,0,0,0,0,0,0,0,0,0,0,0,0,0,0,0,0,0,0,-0.7979,-0.7981,0,-0.809,-0.8091,-0.8092,-0.8193,-0.8194,-0.8195,-0.8196,-0.8307,-0.8309,-0.8311,0,0,0,0,0,0,0,0,0,0,0,0,0,-0.7854,-0.7856,-0.7979,-0.7981,-0.7982,-0.809,-0.8091,-0.8093,-0.8192,-0.8194,-0.8195,-0.8197,-0.8307,-0.8309,-0.8311,0,0,0,0,0,0,0,0,0,0,0,0,0,-0.7931,-0.7856,-0.7979,-0.8045,-0.8052,-0.8089,-0.8091,-0.8093,-0.8192,-0.8194,-0.8196,-0.8197,-0.8306,-0.8309,-0.8311,-0.8292,0,0,-0.832,-0.8321,0,0,0,0,0,0,0,0,-0.7926,-0.7935,-0.8034,-0.804,-0.8048,-0.8129,-0.8088,-0.816,-0.8192,-0.8139,-0.8196,-0.8198,-0.8247,-0.8254,-0.8271,-0.8297,-0.8302,-0.832,-0.8322,-0.8323,-0.8324,0,0,0,0,0,0,0,-0.7921,-0.7931,-0.8023,-0.8035,-0.8044,-0.8069,-0.8081,-0.8102,-0.8181,-0.8143,-0.8151,-0.8163,-0.8251,-0.8268,-0.8274,-0.8304,-0.832,-0.8322,-0.8324,-0.8325,-0.8321,-0.8319,0,0,0,0,0,0,-0.7906,-0.7926,-0.802,-0.8026,-0.7991,-0.8069,-0.8084,-0.8101,-0.8181,-0.8195,-0.8161,-0.8167,-0.8262,-0.8271,-0.8279,-0.8262,-0.8323,-0.8325,-0.8327,-0.8323,-0.8321,-0.8319,0,0,0,0,0,0,-0.7902,-0.7913,-0.8015,-0.7978,-0.7993,-0.807,-0.8089,-0.8103,-0.812,-0.8195,-0.8209,-0.8164,-0.8264,-0.8275,-0.8288,-0.8267,-0.8327,-0.8329,-0.8325,-0.8322,-0.832,-0.8228,0,0,0,0,0,0,-0.7898,-0.7911,-0.7905,-0.7977,-0.7995,-0.8023,-0.8087,-0.8103,-0.8125,-0.8133,-0.8201,-0.8214,-0.8266,-0.8284,-0.8291,-0.8272,-0.8331,-0.8327,-0.8324,-0.832,-0.8233,-0.8223,-0.8214,0,0,0,0,0,-0.7894,-0.7874,-0.7904,-0.7915,-0.7988,-0.8021,-0.8031,-0.8092,-0.8123,-0.8117,-0.8165,-0.8212,-0.8268,-0.8284,-0.8293,-0.8275,-0.8329,-0.8324,-0.8321,-0.8238,-0.8225,-0.8214,0,0,0,0,0,0,-0.7796,-0.7885,-0.7919,-0.7922,-0.7964,-0.8038,-0.8033,-0.8076,-0.811,-0.8116,-0.819,-0.8205,-0.821,-0.8244,-0.826,-0.8261,-0.8305,-0.8303,-0.8239,-0.8227,-0.8217,-0.8209,-0.8334,0,0,0,0,0,-0.7775,-0.7795,-0.7871,-0.7867,-0.7886,-0.7955,-0.7972,-0.8016,-0.8061,-0.8079,-0.8128,-0.817,-0.8198,-0.8214,-0.8244,-0.8239,-0.8255,-0.8231,-0.8221,-0.8212,-0.8209,-0.821,-0.8201,-0.8306,-0.8306,-0.8306,0,0,-0.7732,-0.7782,-0.779,-0.7849,-0.7886,-0.7905,-0.797,-0.7986,-0.8001,-0.8082,-0.8098,-0.8135,-0.8187,-0.8192,-0.8196,-0.822,-0.8184,-0.8207,-0.82,-0.8202,-0.8205,-0.8195,-0.8186,-0.8303,-0.8303,-0.8304,0,0,-0.7662,-0.7703,-0.7704,-0.774,-0.7796,-0.7843,-0.7843,-0.7911,-0.794,-0.7957,-0.8018,-0.8037,-0.8082,-0.8117,-0.8141,-0.8085,-0.813,-0.8093,-0.8041,-0.8041,-0.8033,-0.8026,-0.8007,-0.7999,-0.809,-0.8089,-0.8089,0,-0.7601,-0.7633,-0.7699,-0.7713,-0.7737,-0.7811,-0.7813,-0.7845,-0.7907,-0.7922,-0.7948,-0.8007,-0.8047,-0.8062,-0.8048,-0.8064,-0.8067,-0.8086,-0.8029,-0.8023,-0.8017,-0.8,-0.7992,-0.8085,-0.8085,-0.8086,-0.8086,0,-0.7555,-0.7576,-0.757,-0.763,-0.7653,-0.766,-0.7728,-0.7743,-0.7785,-0.7828,-0.7846,-0.7897,-0.7938,-0.7944,-0.7985,-0.7965,-0.7978,-0.8015,-0.8061,-0.8001,-0.7986,-0.798,-0.8078,-0.8079,-0.8081,-0.8082,0,0,-0.7428,-0.7524,-0.7521,-0.7549,-0.7617,-0.7634,-0.7645,-0.7686,-0.7698,-0.7739,-0.775,-0.7787,-0.7823,-0.7849,-0.7894,-0.7894,-0.7848,-0.7932,-0.7934,-0.7915,-0.783,-0.7802,-0.7794,-0.7879,-0.7878,-0.7877,-0.7826,0,-0.737,-0.7396,-0.7456,-0.7462,-0.7482,-0.7554,-0.7564,-0.7606,-0.7647,-0.767,-0.7716,-0.7741,-0.7785,-0.7802,-0.7805,-0.7853,-0.7832,-0.7858,-0.789,-0.7891,-0.7875,-0.7786,-0.7756,-0.7706,-0.7821,-0.782,-0.7819,0,-0.7307,-0.7344,-0.7352,-0.742,-0.7431,-0.7438,-0.7482,-0.7503,-0.7552,-0.7582,-0.7612,-0.7662,-0.7678,-0.772,-0.7743,-0.7758,-0.7775,-0.7801,-0.7801,-0.7806,-0.7851,-0.779,-0.7691,-0.7684,-0.7811,-0.7811,-0.7812,0,-0.7214,-0.7266,-0.7278,-0.73,-0.7378,-0.7382,-0.7415,-0.7467,-0.7488,-0.7525,-0.754,-0.7578,-0.7599,-0.7628,-0.7687,-0.7711,-0.7703,-0.775,-0.7729,-0.7727,-0.7724,-0.7724,-0.7628,-0.7734,-0.7734,-0.7734,-0.7734,0,-0.7144,-0.7147,-0.7238,-0.7245,-0.725,-0.7319,-0.7322,-0.7362,-0.7407,-0.7423,-0.7487,-0.75,-0.7577,-0.76,-0.7646,-0.7659,-0.7668,-0.7693,-0.7705,-0.7687,-0.7684,-0.77,-0.7705,-0.7732,-0.7732,-0.7733,-0.7733,0,-0.7041,-0.7102,-0.7121,-0.7194,-0.7212,-0.7213,-0.7275,-0.7285,-0.733,-0.735,-0.7359,-0.743,-0.746,-0.7522,-0.7568,-0.76,-0.7602,-0.7623,-0.7585,-0.7593,-0.7569,-0.757,-0.748,-0.7472,-0.7582,-0.758,-0.7579,0,-0.6993,-0.6997,-0.7071,-0.7087,-0.7117,-0.7142,-0.7164,-0.7232,-0.7253,-0.731,-0.7313,-0.7348,-0.738,-0.7425,-0.7481,-0.7517,-0.7541,-0.7506,-0.7546,-0.7529,-0.7541,-0.754,-0.7541,-0.7497,-0.7496,-0.7495,-0.7494,0,-0.6901,-0.6932,-0.6962,-0.7002,-0.7027,-0.7062,-0.71,-0.711,-0.7187,-0.7206,-0.7239,-0.7263,-0.7312,-0.7346,-0.7391,-0.7425,-0.7472,-0.748,-0.7478,-0.746,-0.7438,-0.7451,-0.7561,-0.7482,-0.7483,-0.7484,-0.7485,-0.7485,-0.6825,-0.6832,-0.6886,-0.6917,-0.6954,-0.6988,-0.7001,-0.7048,-0.7077,-0.7122,-0.716,-0.7189,-0.7239,-0.7304,-0.7335,-0.7359,-0.7382,-0.7377,-0.7376,-0.7374,-0.7367,-0.7434,-0.7367,-0.7367,-0.7368,-0.7368,-0.7368,0,-0.6738,-0.6776,-0.6804,-0.6856,-0.6881,-0.6923,-0.6968,-0.6986,-0.7011,-0.7054,-0.7084,-0.7121,-0.7155,-0.7213,-0.7252,-0.726,-0.7283,-0.7268,-0.7268,-0.7276,-0.7344,-0.7343,-0.7249,-0.7249,-0.7249,-0.7249,-0.7249,-0.7249,-0.6695,-0.671,-0.6746,-0.6779,-0.6817,-0.6847,-0.6869,-0.6901,-0.6936,-0.6975,-0.7003,-0.7041,-0.7091,-0.7134,-0.7167,-0.7183,-0.7195,-0.7173,-0.7196,-0.7259,-0.7271,-0.7281,-0.7281,-0.7175,-0.7175,-0.7126,-0.7126,-0.7125]}]]